Location: Lugrin
(46.4033°N, 6.6674°E)
Time: 01:38:01
(UTC+00:00)

H-2A R/B - Pass Details

Date: 18 September 2020
Orbit: 734 x 836 km, 98.2° (Epoch: 31 October)

Event Time Altitude Azimuth Distance (km) Brightness Sun altitude
Rises 19:13:10 0° 185° (S) 3,156 5.0 -16.8°
Reaches altitude 10° 19:15:33 10° 193° (SSW) 2,245 4.3 -17.2°
Maximum altitude 19:20:11 40° 263° (W) 1,092 3.3 -17.9°
Drops below altitude 10° 19:24:57 10° 333° (NNW) 2,307 5.2 -18.7°
Sets 19:27:26 0° 341° (NNW) 3,254 5.9 -19.1°
